WetterOnline ( https://www.wetteronline.de )

Wetter aktuell Vogelsberg

Aktuelles Wetter: Hoherodskopf/Vogelsberg (743m)

6-stündlich | Neueste Meldungen
Ortszeit Temperatur Wetter
So, 17.10. 20:00 6.6° C bedeckt
So, 17.10. 14:00 7.6° C bedeckt
So, 17.10. 8:00 5.5° C bedeckt
So, 17.10. 2:00 6.0° C bedeckt
Sa, 16.10. 20:00 5.4° C wolkenlos
Sa, 16.10. 14:00 7.3° C bedeckt
Sa, 16.10. 8:00 4.3° C wolkenlos
Sa, 16.10. 2:00 4.5° C wolkenlos
Ortszeit Temperatur Wetter
So, 17.10. 23:30 6.7° C bedeckt
So, 17.10. 23:20 6.7° C bedeckt
So, 17.10. 23:10 6.6° C bedeckt
So, 17.10. 23:00 6.6° C bedeckt
So, 17.10. 22:50 6.6° C bedeckt
So, 17.10. 22:40 6.7° C bedeckt
So, 17.10. 22:30 6.6° C wolkig
So, 17.10. 22:00 6.6° C bedeckt
So, 17.10. 21:30 6.4° C bedeckt
So, 17.10. 21:00 6.6° C bewölkt
So, 17.10. 20:30 6.6° C bedeckt
Ortszeit Relative Feuchte Sichtweite
So, 17.10. 20:00 75% 55 km
So, 17.10. 14:00 67% 60 km
So, 17.10. 8:00 71% 45 km
So, 17.10. 2:00 71% 50 km
Sa, 16.10. 20:00 86% 35 km
Sa, 16.10. 14:00 79% 30 km
Sa, 16.10. 8:00 84% 30 km
Sa, 16.10. 2:00 89% 30 km
Ortszeit Relative Feuchte Sichtweite
So, 17.10. 23:30 76% 50 km
So, 17.10. 23:20 76% -
So, 17.10. 23:10 76% -
So, 17.10. 23:00 75% 50 km
So, 17.10. 22:50 75% -
So, 17.10. 22:40 75% -
So, 17.10. 22:30 75% 50 km
So, 17.10. 22:00 79% 45 km
So, 17.10. 21:30 77% 60 km
So, 17.10. 21:00 77% 50 km
So, 17.10. 20:30 76% 55 km
Ortszeit Niederschlagsmenge Niederschlagsart
So, 17.10. 20:00 0.0 l/m2 in 12 Std. -
So, 17.10. 14:00 0.0 l/m2 in 6 Std. -
So, 17.10. 8:00 0.0 l/m2 in 12 Std. -
So, 17.10. 2:00 0.0 l/m2 in 6 Std. -
Sa, 16.10. 20:00 0.0 l/m2 in 12 Std. -
Sa, 16.10. 14:00 0.0 l/m2 in 6 Std. -
Sa, 16.10. 8:00 0.0 l/m2 in 12 Std. -
Sa, 16.10. 2:00 0.0 l/m2 in 6 Std. -
Ortszeit Niederschlagsmenge Niederschlagsart
So, 17.10. 23:30 0.0 l/m2 in 1 Std. -
So, 17.10. 23:20 keine Meldung -
So, 17.10. 23:10 keine Meldung -
So, 17.10. 23:00 0.0 l/m2 in 1 Std. -
So, 17.10. 22:50 keine Meldung -
So, 17.10. 22:40 keine Meldung -
So, 17.10. 22:30 0.0 l/m2 in 1 Std. -
So, 17.10. 22:00 0.0 l/m2 in 1 Std. -
So, 17.10. 21:30 0.0 l/m2 in 1 Std. -
So, 17.10. 21:00 0.0 l/m2 in 1 Std. -
So, 17.10. 20:30 0.0 l/m2 in 1 Std. -
Ortszeit Stärke Spitze Richtung
km/h Bft. km/h Grad Sektor
So, 17.10. 20:00 0 0 11 - -
So, 17.10. 14:00 6 1 13 200° S
So, 17.10. 8:00 11 2 18 350° N
So, 17.10. 2:00 7 2 14 290° W
Sa, 16.10. 20:00 7 2 11 60° NO
Sa, 16.10. 14:00 6 1 11 270° W
Sa, 16.10. 8:00 4 1 22 40° NO
Sa, 16.10. 2:00 14 3 29 40° NO
Ortszeit Stärke Spitze Richtung
km/h Bft. km/h Grad Sektor
So, 17.10. 23:30 6 1 7 130° SO
So, 17.10. 23:20 6 1 - 130° SO
So, 17.10. 23:10 7 2 - 130° SO
So, 17.10. 23:00 7 2 11 130° SO
So, 17.10. 22:50 7 2 - 130° SO
So, 17.10. 22:40 6 1 - 130° SO
So, 17.10. 22:30 6 1 6 130° SO
So, 17.10. 22:00 2 1 6 330° NW
So, 17.10. 21:30 4 1 7 300° NW
So, 17.10. 21:00 4 1 4 290° W
So, 17.10. 20:30 0 0 4 - -
Ortszeit Untergrenze Bedeckung Gattung
total tief tief mittel hoch
So, 17.10. 20:00 1140 m 8/8 8/8 - - -
So, 17.10. 14:00 1170 m 8/8 8/8 - - -
So, 17.10. 8:00 900 m 8/8 8/8 - - -
So, 17.10. 2:00 840 m 8/8 8/8 - - -
Sa, 16.10. 20:00 - 0/8 0/8 - - -
Sa, 16.10. 14:00 840 m 8/8 8/8 - - -
Sa, 16.10. 8:00 - 0/8 0/8 - - -
Sa, 16.10. 2:00 - 0/8 0/8 - - -
Ortszeit Bedeckungsgrad in Achtel und Wolkenuntergrenze
So, 17.10. 23:30 3(3000m) 8(4200m) 8(7500m)
So, 17.10. 23:20 3(3000m) 8(4200m) 8(7500m)
So, 17.10. 23:10 6(3000m) 8(4200m) 8(7800m)
So, 17.10. 23:00 3(3300m) 8(4500m) 8(7500m)
So, 17.10. 22:50 3(3300m) 8(4500m)
So, 17.10. 22:40 1(3300m) 8(4500m)
So, 17.10. 22:30 1(1110m) 8(4500m) 8(6600m)
So, 17.10. 22:00 8(1110m) 8(4800m)
So, 17.10. 21:30 8(1140m) 8(5700m)
So, 17.10. 21:00 7(1140m) 7(5700m)
So, 17.10. 20:30 8(1140m) 8(6300m)
Ortszeit Luftdruck NN (hPa) Tendenz (hPa in 3 Std.)
So, 17.10. 20:00 1022 + 0,8
So, 17.10. 14:00 1022 - 0,1
So, 17.10. 8:00 1021 0,0
So, 17.10. 2:00 1022 - 0,4
Sa, 16.10. 20:00 1022 - 0,1
Sa, 16.10. 14:00 1022 - 0,3
Sa, 16.10. 8:00 1023 + 0,5
Sa, 16.10. 2:00 1022 + 0,5
Ortszeit Luftdruck NN (hPa) Tendenz (hPa in 3 Std.)
So, 17.10. 23:30 1023 + 0,9
So, 17.10. 23:20 1023 keine Meldung
So, 17.10. 23:10 1023 keine Meldung
So, 17.10. 23:00 1023 + 0,9
So, 17.10. 22:50 1023 keine Meldung
So, 17.10. 22:40 1023 keine Meldung
So, 17.10. 22:30 1023 + 1,0
So, 17.10. 22:00 1023 + 1,1
So, 17.10. 21:30 1023 + 0,9
So, 17.10. 21:00 1023 + 1,0
So, 17.10. 20:30 1022 + 0,9
Ortszeit Schneehöhe (cm)
So, 17.10. 20:00 0
So, 17.10. 14:00 0
So, 17.10. 8:00 0
So, 17.10. 2:00 0
Sa, 16.10. 20:00 0
Sa, 16.10. 14:00 0
Sa, 16.10. 8:00 0
Sa, 16.10. 2:00 0
Ortszeit Schneehöhe (cm)
So, 17.10. 23:30 0
So, 17.10. 23:20 0
So, 17.10. 23:10 0
So, 17.10. 23:00 0
So, 17.10. 22:50 0
So, 17.10. 22:40 0
So, 17.10. 22:30 0
So, 17.10. 22:00 0
So, 17.10. 21:30 0
So, 17.10. 21:00 0
So, 17.10. 20:30 0
Link zu dieser Seite / Seite empfehlen

Das Wetter in ...